Flag for Norway Weather past 2 weeks in Jan Mayen, Jan Mayen, Norway

Now
44 °F

Quite cool.


Feels Like: 44 °F
Forecast: 46 / 50 °F
Wind: 2 mph from South

Location: Jan Mayen

Current Time: Jul 24, 2014 at 8:08:36 AM

Latest Report: Jul 24, 2014 at 7:00 AM


Visibility: N/A

Pressure: 30.10 "Hg

Humidity: 98%

Dew point: 44 °F

Location of Jan MayenLocation

Historic Weather in Jan Mayen — Graph

°F

Jan Mayen temperature yesterday

Maximum temperature yesterday: 47 °F (at 5:00 PM)
Minimum temperature yesterday: 45 °F (at 5:00 AM)
Average temperature yesterday: 46 °F

Past Weeks' High & Low Weather Summary

 TemperatureHumidityPressure
High50 °F (Jul 14, 6:00 AM)99% (Jul 23, 11:00 PM)30.29 "Hg (Jul 23, 11:00 PM)
Low43 °F (Jul 11, 1:00 AM)95% (Jul 14, 10:00 AM)29.58 "Hg (Jul 15, 8:00 PM)
Average46 °F98%29.95 "Hg
* Reported Jul 9 10:00 AM — Jul 24 6:00 AM, Jan Mayen, Weather by CustomWeather, © 2014

Note: Actual official high and low records may vary slightly from our data, if they occured in-between our weather recording intervals... More about our weather records

Advertising

Jan Mayen weather history for previous 24 hours

 ConditionsComfort  
Time TempWeatherWind HumidityBarometerVisibility
6:00 AM
Jul 24
44 °FQuite cool.6 mph98%30.09 "HgN/A
5:00 AM45 °FQuite cool.7 mph98%30.08 "HgN/A
4:00 AM45 °FCool.7 mph98%30.08 "HgN/A
3:00 AM44 °FQuite cool.8 mph98%30.08 "HgN/A
2:00 AM44 °FFog.5 mph98%30.09 "Hg0 mi
1:00 AM44 °FQuite cool.6 mph98%30.07 "HgN/A
12:00 AM44 °FQuite cool.7 mph98%30.06 "HgN/A
11:00 PM
Jul 23
45 °FFog.8 mph99%30.05 "Hg0 mi
10:00 PM45 °FCool.7 mph98%30.04 "HgN/A
9:00 PM45 °FCool.6 mph98%30.04 "HgN/A
8:00 PM46 °FFog.5 mph98%30.02 "Hg0 mi
7:00 PM46 °FCool.6 mph98%30.01 "HgN/A
6:00 PM47 °FCool.8 mph98%30.01 "HgN/A
5:00 PM47 °FCool.6 mph98%30.01 "HgN/A
4:00 PM46 °FCool.5 mph98%30.02 "HgN/A
2:00 PM46 °FFog.7 mph98%30.04 "Hg0 mi
Weather by CustomWeather, © 2014

See weather overviewHow to use our weather pages